This is the latest recevied weather packets stored in our database for station/object AD0YN. If no packets are shown the sender has not sent any weather packets the latest 10 day(s).
| Time | Temp. | Humidity | Pressure | Rain* | Wind** | Luminosity | Snow |
|---|---|---|---|---|---|---|---|
| 1777578689 | 17.78° C | 49% | 1014.6 hPa | 0 mm | - | 415 W/m² | - |
| 1777578388 | 17.78° C | 47% | 1014.7 hPa | 0 mm | - | 273 W/m² | - |
| 1777578084 | 17.78° C | 50% | 1015 hPa | 0 mm | - | 378 W/m² | - |
| 1777577780 | 17.22° C | 49% | 1015 hPa | 0 mm | - | 309 W/m² | - |
| 1777577476 | 17.22° C | 48% | 1015 hPa | 0 mm | - | 246 W/m² | - |
| 1777577173 | 17.22° C | 47% | 1015.1 hPa | 0 mm | - | 110 W/m² | - |
| 1777576870 | 17.78° C | 46% | 1015.1 hPa | 0 mm | - | 215 W/m² | - |
| 1777576568 | 18.33° C | 45% | 1015.2 hPa | 0 mm | - | 276 W/m² | - |
| 1777576265 | 18.33° C | 45% | 1015.1 hPa | 0 mm | - | 615 W/m² | - |
| 1777575961 | 18.33° C | 42% | 1015 hPa | 0 mm | - | 339 W/m² | - |
| 1777575657 | 18.33° C | 44% | 1015.2 hPa | 0 mm | - | 948 W/m² | - |
| 1777575353 | 18.33° C | 45% | 1015.4 hPa | 0 mm | - | 691 W/m² | - |
| 1777575050 | 18.89° C | 47% | 1015.3 hPa | 0 mm | - | 1037 W/m² | - |
| 1777574745 | 18.33° C | 48% | 1015.5 hPa | 0 mm | - | 991 W/m² | - |
| 1777574443 | 17.22° C | 46% | 1015.6 hPa | 0 mm | - | 1010 W/m² | - |
| 1777574139 | 17.22° C | 46% | 1015.4 hPa | 0 mm | - | 282 W/m² | - |
| 1777573834 | 17.22° C | 49% | 1015.7 hPa | 0 mm | - | 359 W/m² | - |
| 1777573535 | 17.78° C | 47% | 1015.9 hPa | 0 mm | - | 229 W/m² | - |
| 1777573232 | 17.78° C | 49% | 1015.7 hPa | 0 mm | - | 355 W/m² | - |
| 1777572928 | 17.78° C | 47% | 1015.9 hPa | 0 mm | - | 531 W/m² | - |
| 1777572623 | 17.78° C | 47% | 1016 hPa | 0 mm | - | 1078 W/m² | - |
| 1777572318 | 16.67° C | 49% | 1016 hPa | 0 mm | - | 391 W/m² | - |
| 1777572015 | 16.67° C | 48% | 1016.3 hPa | 0 mm | - | 371 W/m² | - |
| 1777571714 | 17.22° C | 49% | 1016.2 hPa | 0 mm | - | 317 W/m² | - |
| 1777571413 | 17.22° C | 51% | 1016.2 hPa | 0 mm | - | 435 W/m² | - |
* Rain latest hour (hover to see other rain measurements)
** Current wind speed in m/s (hover to see current wind gust speed)